Regional Weather Roundup
Issued by NWS

Home | Current Version | Previous Version | Text Only | Print | Product List | Glossary Off
Versions: 1 2 3 4 5 6 7 8 9 10 11 12 13 14 15 16 17 18 19 20 21 22 23 24 25 26 27 28 29 30 31 32 33 34 35 36 37 38 39 40 41 42 43 44 45 46 47 48 49 50

535
ASUS45 KABQ 291101
RWRNM
NEW MEXICO REGIONAL WEATHER ROUNDUP
NATIONAL WEATHER SERVICE ALBUQUERQUE NM
500 AM MDT SUN MAY 29 2016

NOTE: "FAIR" MEANS FEW OR NO CLOUDS BELOW 12,000 FEET AGL WITH NO
       SIGNIFICANT WEATHER OR OBSTRUCTIONS TO VISION.

      THIS PRODUCT IS RELEASED AS TWO VERSIONS.  ONE VERSION NEAR
      THE TOP OF THE HOUR CONTAINING PRELIMINARY DATA FROM ALBUQUERQUE
      AND OTHER STATIONS.  A FINAL VERSION WITH ADDITIONAL DATA IS
      ISSUED ABOUT 10 MINUTES AFTER THE HOUR.

NMZ501-503-504-510>518-291200-
NORTHWEST PLATEAU/NORTHCENTRAL MOUNTAINS

CITY           SKY/WX    TMP DP  RH WIND       PRES   REMARKS
FARMINGTON     FAIR      52  30  43 E6        30.10S
SANTA FE       FAIR      51  21  30 NE12      30.18R
TAOS           FAIR      45  25  45 CALM      30.24S

$$
NMZ402-403-502-505>509-291200-
WESTCENTRAL MOUNTAINS/SOUTHWEST MOUNTAINS

CITY           SKY/WX    TMP DP  RH WIND       PRES   REMARKS
GALLUP         FAIR      40  28  62 CALM      30.17R
GRANTS         FAIR      37  22  54 CALM      30.20R
SILVER CITY      N/A     48   9  20 N12       30.15S

$$
NMZ407-409-411-412-291200-
SOUTHERN DESERTS

CITY           SKY/WX    TMP DP  RH WIND       PRES   REMARKS
LORDSBURG      FAIR      52   3  14 S5        30.08R
DEMING         FAIR      54   8  16 S5        30.09R
HOLLOMAN AFB   FAIR      57  13  17 E7        30.05R
ALAMOGORDO     FAIR      59  12  15 E3        30.07R
T OR C         FAIR      58   9  14 W7        30.08R

$$
NMZ519>523-291200-
CENTRAL VALLEYS/CENTRAL HIGHLANDS

CITY           SKY/WX    TMP DP  RH WIND       PRES   REMARKS
ALBUQUERQUE    FAIR      56  15  20 E7        30.11R
CLINES CORNERS FAIR      47  20  34 S12       30.21R
BELEN          FAIR      53   8  16 CALM      30.10R
SOCORRO        NOT AVBL

$$
NMZ524>526-539-540-291200-
SOUTHCENTRAL MOUNTAINS

CITY           SKY/WX    TMP DP  RH WIND       PRES   REMARKS
RUIDOSO        NOT AVBL

$$
NMZ527>531-291200-
NORTHEAST HIGHLANDS/NORTHEAST PLAINS

CITY           SKY/WX    TMP DP  RH WIND       PRES   REMARKS
LAS VEGAS      FAIR      44  23  43 E7        30.24R
RATON          FAIR      44  33  65 NE7       30.22R
CLAYTON        FAIR      53  45  74 SE6       30.17R

$$
NMZ532>537-291200-
EASTCENTRAL PLAINS

CITY           SKY/WX    TMP DP  RH WIND       PRES   REMARKS
TUCUMCARI      FAIR      60  50  69 NE3       30.11R
CANNON AFB     MOCLDY    57  52  82 SE6       30.14R
CLOVIS AIRPORT MOCLDY    59  48  67 S12       30.13R

$$
NMZ028-029-538-291200-
SOUTHEAST PLAINS

CITY           SKY/WX    TMP DP  RH WIND       PRES   REMARKS
ROSWELL        CLOUDY    64  45  49 N5        30.05R
ARTESIA        MOCLDY    63  30  29 NW6       30.05R
CARLSBAD       MOCLDY    69  61  75 SE6       30.01R
HOBBS          FAIR      64  64 100 E20       30.08R


$$




USA.gov is the U.S. government's official web portal to all federal, state and local government web resources and services.